Other Surface Observations
Issued by NWS Jacksonville, FL

Home | Current Version | Previous Version | Text Only | Print | Product List | Glossary On
Versions: 1 2 3 4 5 6 7 8 9 10 11 12 13 14 15 16 17 18 19 20 21 22 23 24 25 26 27 28 29 30 31 32 33 34 35 36 37 38 39 40 41 42 43 44 45 46 47 48 49 50
000
SXUS52 KJAX 251713
OSOJAX
OTHER SURFACE OBSERVATIONS
NATIONAL WEATHER SERVICE JACKSONVILLE FL
100 PM EDT THU MAY 25 2017

FLZ020>025-030>033-035>038-040-251800-
...FLORIDA...

CITY           SKY/WX    TMP DP  RH WIND       PRES   REMARKS
CECIL FIELD    SUNNY     79  54  41 W16       29.84S
HERLONG FIELD  NOT AVBL
FERNANDINA BCH NOT AVBL
LAKE CITY      FAIR      77  52  41 W17G25    29.86S
JUNIPER SPGS   NOT AVBL
BUNNELL        NOT AVBL
KEYSTONE HGTS  FAIR      77  46  33 W15G28    29.87S
$$

GAZ132>136-149>154-162>166-251800-
...GEORGIA...

CITY           SKY/WX    TMP DP  RH WIND       PRES   REMARKS
JESUP          FAIR      75  45  33 W21G29    29.81R
HOMERVILLE     FAIR     N/A N/A N/A NW21G29   29.85R
SWAINSBORO     PTSUNNY   70  54  56 W16G23    29.79S
CORDELE        NOT AVBL
EASTMAN        PTSUNNY   72  40  31 W12G20    29.84S
$$

PLEASE NOTE:  THESE OBSERVATIONS ARE NOT QUALITY CONTROLLED AND MAY
NOT BE AVAILABLE AT ALL TIMES.
$$



USA.gov is the U.S. government's official web portal to all federal, state and local government web resources and services.